Location: Newark
(31.5350°N, 35.0986°E)
Time: 16:24:36
(UTC+00:00)

Vanguard 1 - Pass Details

Date: 27 September 2019
Orbit: 653 x 3830 km, 34.3° (Epoch: 14 October)

Event Time Altitude Azimuth Distance (km) Brightness Sun altitude
Rises 19:42:33 0° 217° (SW) 5,972 14.0 -50.8°
Enters shadow 19:45:17 - 213° (SSW) 5,461 13.7 -51.2°
Reaches altitude 10° 19:46:05 10° 211° (SSW) 5,322 - -51.3°
Maximum altitude 20:02:50 52° 140° (SE) 4,087 - -53.7°
Exits shadow 20:21:14 18° 77° (ENE) 6,262 13.9 -56.0°
Drops below altitude 10° 20:24:56 10° 73° (ENE) 6,861 14.2 -56.4°
Sets 20:30:12 0° 69° (ENE) 7,733 14.6 -57.0°
